Onalaska, WI

2:51 AM CDT on August 30, 2016 (GMT -0500)
La Crosse Municipal

Weather History for KLSE - January, 2014

Change the Weather History Date:

Friday, January 3, 2014

  Actual Average Record
Temperature  
Mean Temperature 5 °F 18 °F  
Max Temperature 21 °F 26 °F 57 °F (1874)
Min Temperature -11 °F 10 °F -23 °F (1919)
Degree Days  
Heating Degree Days 60 47  
Month to date heating degree days 188 141  
Since 1 July heating degree days 3116 2985  
Cooling Degree Days 0 0  
Month to date cooling degree days 0 0  
Year to date cooling degree days 0 0  
Moisture  
Dew Point 0 °F    
Average Humidity 72    
Maximum Humidity 83    
Minimum Humidity 61    
Precipitation  
Precipitation 0.00 in 0.03 in 0.91 in (1906)
Month to date precipitation 0.00 0.10  
Year to date precipitation 0.00 0.10  
Snow  
Snow 0.00 in 0.30 in 10.00 in (1971)
Month to date snowfall 0.0 0.9  
Since 1 July snowfall 13.7 16.5  
Snow Depth 7.00 in    
Sea Level Pressure  
Sea Level Pressure 30.08 in    
Wind  
Wind Speed 14 mph (SSE)    
Max Wind Speed 31 mph    
Max Gust Speed 40 mph    
Visibility 10 miles    
Events      
T = Trace of Precipitation, MM = Missing Value Source: NWS Daily Summary

Daily Weather History Graph

Daily Weather History Graph

Search for Another Location

Airport or City:

Trip Planner

Search our weather history database for the weather conditions in past years. The results will help you decide how hot, cold, wet, or windy it might be!

Date:

Astronomy

Jan. 03, 2014 Rise Set
Actual Time 7:39 AM CST 4:40 PM CST
Civil Twilight 7:06 AM CST 5:12 PM CST
Nautical Twilight 6:30 AM CST 5:48 PM CST
Astronomical Twilight 5:55 AM CST 6:23 PM CST
Moon 8:59 AM CST (1/3) 7:56 PM CST (1/3)
Length of Visible Light 10h 06m
Length of Day
9h 00m
Waxing Crescent, 8% of the Moon is Illuminated
Jan 3
Waxing Crescent
Jan 7
First Quarter
Jan 15
Full
Jan 23
Last Quarter
Jan 30
New

Hourly Weather History & Observations

Time (CST) Temp. Windchill Dew Point Humidity Pressure Visibility Wind Dir Wind Speed Gust Speed Precip Events Conditions
12:53 AM -8.0 °F -19.2 °F -11.9 °F 83% 30.50 in 10.0 mi SSE 4.6 mph - N/A   Clear
1:53 AM -6.0 °F -14.7 °F -11.0 °F 79% 30.50 in 10.0 mi SSE 3.5 mph - N/A   Clear
2:53 AM -9.0 °F -22.3 °F -13.0 °F 83% 30.49 in 10.0 mi SE 5.8 mph - N/A   Clear
3:53 AM -9.0 °F -20.4 °F -13.0 °F 83% 30.46 in 10.0 mi SSE 4.6 mph - N/A   Clear
4:53 AM -9.9 °F -23.4 °F -14.1 °F 82% 30.44 in 10.0 mi SE 5.8 mph - N/A   Clear
5:53 AM -9.0 °F -22.3 °F -13.0 °F 83% 30.41 in 10.0 mi SE 5.8 mph - N/A   Scattered Clouds
6:53 AM -7.1 °F -18.1 °F -11.0 °F 83% 30.37 in 10.0 mi SE 4.6 mph - N/A   Mostly Cloudy
7:53 AM -2.0 °F -19.6 °F -7.1 °F 79% 30.34 in 10.0 mi South 11.5 mph 19.6 mph N/A   Scattered Clouds
8:53 AM 1.9 °F -15.5 °F -6.0 °F 69% 30.30 in 10.0 mi South 12.7 mph 18.4 mph N/A   Scattered Clouds
9:53 AM 3.9 °F -17.6 °F -4.0 °F 70% 30.26 in 9.0 mi South 21.9 mph 28.8 mph N/A   Clear
10:53 AM 7.0 °F -13.6 °F -2.0 °F 67% 30.19 in 10.0 mi South 21.9 mph 32.2 mph N/A   Scattered Clouds
11:53 AM 9.0 °F -9.0 °F -0.0 °F 67% 30.11 in 10.0 mi South 17.3 mph 28.8 mph N/A   Overcast
12:30 PM 10.4 °F -10.3 °F 1.4 °F 67% 29.97 in 9.0 mi South 25.3 mph 31.1 mph N/A   Overcast
12:53 PM 12.0 °F -6.9 °F 1.9 °F 64% 30.03 in 9.0 mi South 21.9 mph 32.2 mph N/A   Overcast
1:16 PM 12.2 °F -8.9 °F 1.4 °F 62% 29.90 in 9.0 mi South 28.8 mph 36.8 mph N/A   Overcast
1:53 PM 14.0 °F -4.3 °F 3.0 °F 62% 29.95 in 10.0 mi South 21.9 mph 31.1 mph N/A   Overcast
2:53 PM 16.0 °F -2.1 °F 5.0 °F 62% 29.89 in 10.0 mi South 23.0 mph 32.2 mph N/A   Partly Cloudy
3:53 PM 16.0 °F -3.2 °F 6.1 °F 65% 29.87 in 6.0 mi South 26.5 mph 36.8 mph N/A   Haze
4:53 PM 16.0 °F -3.2 °F 7.0 °F 68% 29.83 in 7.0 mi South 26.5 mph 36.8 mph N/A   Clear
5:53 PM 17.1 °F 1.0 °F 8.1 °F 68% 29.81 in 10.0 mi South 18.4 mph 28.8 mph N/A   Clear
6:53 PM 18.0 °F 4.2 °F 9.0 °F 68% 29.79 in 10.0 mi South 13.8 mph 25.3 mph N/A   Clear
7:53 PM 18.0 °F 3.6 °F 9.0 °F 68% 29.77 in 10.0 mi SSE 15.0 mph - N/A   Clear
8:53 PM 19.0 °F 5.6 °F 10.0 °F 68% 29.75 in 10.0 mi SSE 13.8 mph 19.6 mph N/A   Clear
9:53 PM 19.9 °F 6.7 °F 10.9 °F 68% 29.73 in 10.0 mi South 13.8 mph 21.9 mph N/A   Clear
10:53 PM 19.9 °F 6.2 °F 10.9 °F 68% 29.70 in 10.0 mi South 15.0 mph 25.3 mph N/A   Clear
11:53 PM 19.9 °F 5.7 °F 12.0 °F 71% 29.67 in 10.0 mi South 16.1 mph 24.2 mph N/A   Clear